Weather in Kichigino

Russia / Chelyabinsk Oblast     54°30′41″N   61°15′50″E
temp.,
°C
wind,
m/s
gust,
m/s
humid.,
%
clouds,
%
prec.,
mm/h
press.,
hPa
HPBL,
m
14 august, sun
sun1423:00+16nnw48695 0.0 1017143
02:00+13nnw34765 0.0 101849
05:00+11nnw36786 0.0 101996
08:00+15n35615 0.0 1020255
11:00+19n56400 0.0 10201541
14:00+21n57370 0.0 10201932
17:00+21n56374 0.0 10202088
20:00+17nne22523 0.0 102011
15 august, mon
mon1523:00+13nw11590 0.0 102011
02:00+11nnw33610 0.0 102143
05:00+10nnw34660 0.0 102254
08:00+15nnw34593 0.0 1022201
11:00+20nnw34420 0.0 10221355
14:00+22n343513 0.0 10222295
17:00+23nw143492 0.0 10202444
20:00+19n1150100 0.0 102011
16 august, tue
tue1623:00+17n3656100 0.0 1021166
02:00+16nnw356095 0.0 1021138
05:00+13n33635 0.0 102337
08:00+15n34590 0.0 1024204
11:00+20nnw34435 0.0 10231251
14:00+23nnw463641 0.0 10222444
17:00+23n783759 0.0 10212148
20:00+18nw485428 0.0 1022137
17 august, wed
wed1723:00+16nnw47595 0.0 1022131
02:00+13nnw476991 0.0 1023115
05:00+11nnw347312 0.0 102465
08:00+15nnw356042 0.0 1024222
11:00+20nnw45435 0.0 10231246
14:00+22n46365 0.0 10212002
17:00+21nne564299 0.0 1021694
20:00+16ene22595 0.0 102120
18 august, thu
thu1823:00+14sse236222 0.0 102170
02:00+14se1164100 0.0 102029
05:00+12nne128624 1.0 101960
08:00+13ne347835 0.0 1020317
11:00+16nne4563100 0.0 10201099
14:00+17nne4454100 0.0 10191255
17:00+11ne5889100 1.3 1020398
20:00+11nw3484100 3.5 1021102